Location: Unspecified
(54.0667°N, 18.4333°E)
Time: 06:25:58
(UTC+02:00)

ISS - Pass Details

Date: 24 December 2012
Orbit: 418 x 420 km, 51.6° (Epoch: 12 August)

Event Time Altitude Azimuth Distance (km) Brightness Sun altitude
Rises 17:16:43 0° 275° (W) 2,380 1.3 -14.6°
Reaches altitude 10° 17:19:37 10° 247° (WSW) 1,528 0.5 -15.0°
Maximum altitude 17:21:21 13° 217° (SW) 1,350 -0.4 -15.3°
Drops below altitude 10° 17:23:06 10° 187° (S) 1,556 -0.6 -15.5°
Sets 17:26:07 0° 159° (SSE) 2,460 0.1 -15.9°
